Weather History for Cook, MN

Change the Weather History Date:

Friday, February 17, 2012

  Actual Average Record
Temperature  
Mean Temperature 24 °F -  
Max Temperature 28 °F 24 °F 46 °F (1998)
Min Temperature 19 °F 3 °F -20 °F (2006)
Degree Days  
Heating Degree Days 42    
Moisture  
Dew Point 17 °F    
Average Humidity 74    
Maximum Humidity 93    
Minimum Humidity 55    
Precipitation  
Precipitation 0.00 in - - ()
Sea Level Pressure  
Sea Level Pressure 30.00 in    
Wind  
Wind Speed 2 mph (NNW)    
Max Wind Speed 7 mph    
Max Gust Speed -    
Visibility 10 miles    
Events      
Averages and records for this station are not official NWS values.
T = Trace of Precipitation, MM = Missing Value Source: NWS Daily Summary

Daily Weather History Graph

Daily Weather History Graph

Search for Another Location

Airport:

Trip Planner

Search our weather history database for the weather conditions in past years. The results will help you decide how hot, cold, wet, or windy it might be!

Date:

Astronomy

Feb. 17, 2012 Rise Set
Actual Time 7:14 AM CST 5:36 PM CST
Civil Twilight 6:42 AM CST 6:07 PM CST
Nautical Twilight 6:06 AM CST 6:44 PM CST
Astronomical Twilight 5:30 AM CST 7:19 PM CST
Moon 4:20 AM CST (2/17) 1:15 PM CST (2/17)
Length of Visible Light 11h 25m
Length of Day
10h 21m
Waning Crescent, 19% of the Moon is Illuminated
Feb 17
Waning Crescent
Feb 21
New
Feb 29
First Quarter
Mar 8
Full
Mar 14
Last Quarter

Hourly Weather History & Observations

Time (CST) Temp. Windchill Dew Point Humidity Pressure Visibility Wind Dir Wind Speed Gust Speed Precip Events Conditions
12:16 AM 24.8 °F 20.5 °F 19.4 °F 80% 29.95 in 10.0 mi WSW 3.5 mph - N/A   Overcast
12:37 AM 24.8 °F - 19.4 °F 80% 29.95 in 10.0 mi Calm Calm - N/A   Overcast
12:56 AM 24.8 °F - 19.4 °F 80% 29.94 in 10.0 mi Calm Calm - N/A   Overcast
1:17 AM 24.8 °F - 19.4 °F 80% 29.94 in 10.0 mi Calm Calm - N/A   Overcast
1:37 AM 24.8 °F - 19.4 °F 80% 29.94 in 10.0 mi Calm Calm - N/A   Overcast
1:56 AM 24.8 °F - 19.4 °F 80% 29.94 in 10.0 mi Calm Calm - N/A   Overcast
2:17 AM 23.0 °F - 19.4 °F 86% 29.94 in 10.0 mi Calm Calm - N/A   Overcast
2:37 AM 21.2 °F - 17.6 °F 86% 29.94 in 10.0 mi Calm Calm - N/A   Overcast
2:56 AM 21.2 °F - 19.4 °F 93% 29.94 in 10.0 mi Calm Calm - N/A   Overcast
3:17 AM 21.2 °F - 17.6 °F 86% 29.94 in 10.0 mi Calm Calm - N/A   Overcast
3:37 AM 21.2 °F - 19.4 °F 93% 29.93 in 10.0 mi Calm Calm - N/A   Overcast
3:56 AM 19.4 °F - 17.6 °F 93% 29.93 in 10.0 mi Calm Calm - N/A   Overcast
4:17 AM 21.2 °F - 17.6 °F 86% 29.93 in 10.0 mi Calm Calm - N/A   Overcast
4:37 AM 21.2 °F - 17.6 °F 86% 29.93 in 10.0 mi Calm Calm - N/A   Overcast
4:56 AM 19.4 °F - 17.6 °F 93% 29.94 in 10.0 mi Calm Calm - N/A   Overcast
5:17 AM 19.4 °F - 17.6 °F 93% 29.94 in 10.0 mi Calm Calm - N/A   Overcast
5:36 AM 19.4 °F - 17.6 °F 93% 29.94 in 10.0 mi Calm Calm - N/A   Overcast
6:17 AM 19.4 °F - 17.6 °F 93% 29.95 in 10.0 mi Calm Calm - N/A   Overcast
6:36 AM 19.4 °F - 17.6 °F 93% 29.95 in 10.0 mi Calm Calm - N/A   Overcast
6:56 AM 19.4 °F - 17.6 °F 93% 29.95 in 10.0 mi Calm Calm - N/A   Overcast
7:17 AM 19.4 °F - 17.6 °F 93% 29.96 in 10.0 mi Calm Calm - N/A   Overcast
7:37 AM 19.4 °F - 17.6 °F 93% 29.97 in 10.0 mi Calm Calm - N/A   Overcast
7:56 AM 19.4 °F - 17.6 °F 93% 29.98 in 10.0 mi Calm Calm - N/A   Overcast
8:17 AM 21.2 °F - 17.6 °F 86% 29.98 in 10.0 mi Calm Calm - N/A   Overcast
8:36 AM 21.2 °F - 19.4 °F 93% 29.98 in 10.0 mi Calm Calm - N/A   Overcast
8:56 AM 23.0 °F - 19.4 °F 86% 29.98 in 10.0 mi Calm Calm - N/A   Overcast
9:17 AM 23.0 °F - 19.4 °F 86% 29.99 in 10.0 mi Calm Calm - N/A   Overcast
9:37 AM 24.8 °F 20.5 °F 19.4 °F 80% 29.99 in 10.0 mi NE 3.5 mph - N/A   Overcast
9:57 AM 24.8 °F - 19.4 °F 80% 30.00 in 10.0 mi Calm Calm - N/A   Overcast
10:17 AM 24.8 °F 20.5 °F 17.6 °F 74% 30.00 in 10.0 mi North 3.5 mph - N/A   Overcast
10:36 AM 26.6 °F 22.6 °F 17.6 °F 69% 30.01 in 10.0 mi North 3.5 mph - N/A   Overcast
10:57 AM 26.6 °F 21.2 °F 17.6 °F 69% 30.01 in 10.0 mi NNW 4.6 mph - N/A   Overcast
11:17 AM 26.6 °F - 17.6 °F 69% 30.01 in 10.0 mi Calm Calm - N/A   Overcast
11:36 AM 26.6 °F - 17.6 °F 69% 30.02 in 10.0 mi Calm Calm - N/A   Overcast
11:57 AM 26.6 °F 22.6 °F 17.6 °F 69% 30.02 in 10.0 mi North 3.5 mph - N/A   Overcast
12:17 PM 26.6 °F 22.6 °F 15.8 °F 64% 30.02 in 10.0 mi North 3.5 mph - N/A   Overcast
12:36 PM 26.6 °F 22.6 °F 15.8 °F 64% 30.01 in 10.0 mi North 3.5 mph - N/A   Overcast
12:57 PM 26.6 °F 21.2 °F 15.8 °F 64% 30.02 in 10.0 mi NNE 4.6 mph - N/A   Overcast
1:17 PM 26.6 °F 20.0 °F 15.8 °F 64% 30.02 in 10.0 mi North 5.8 mph - N/A   Overcast
1:36 PM 28.4 °F - 15.8 °F 59% 30.02 in 10.0 mi Calm Calm - N/A   Overcast
1:57 PM 28.4 °F 24.6 °F 14.0 °F 55% 30.01 in 10.0 mi NNW 3.5 mph - N/A   Overcast
2:16 PM 28.4 °F 22.2 °F 14.0 °F 55% 30.02 in 10.0 mi NNW 5.8 mph - N/A   Overcast
2:37 PM 28.4 °F 24.6 °F 14.0 °F 55% 30.02 in 10.0 mi WNW 3.5 mph - N/A   Overcast
2:56 PM 28.4 °F 21.2 °F 14.0 °F 55% 30.02 in 10.0 mi WNW 6.9 mph - N/A   Overcast
3:16 PM 28.4 °F 22.2 °F 15.8 °F 59% 30.03 in 10.0 mi WNW 5.8 mph - N/A   Overcast
3:37 PM 26.6 °F 19.1 °F 14.0 °F 59% 30.03 in 10.0 mi WNW 6.9 mph - N/A   Overcast
3:56 PM 26.6 °F 19.1 °F 12.2 °F 55% 30.03 in 10.0 mi NW 6.9 mph - N/A   Overcast
4:16 PM 26.6 °F 19.1 °F 14.0 °F 59% 30.04 in 10.0 mi NW 6.9 mph - N/A   Overcast
4:37 PM 26.6 °F 20.0 °F 12.2 °F 55% 30.05 in 10.0 mi NNW 5.8 mph - N/A   Overcast
4:56 PM 26.6 °F 19.1 °F 14.0 °F 59% 30.05 in 10.0 mi NW 6.9 mph - N/A   Overcast
5:16 PM 26.6 °F 21.2 °F 14.0 °F 59% 30.05 in 10.0 mi NNW 4.6 mph - N/A   Overcast
5:37 PM 24.8 °F 20.5 °F 12.2 °F 59% 30.06 in 10.0 mi NNW 3.5 mph - N/A   Overcast
6:16 PM 24.8 °F 17.9 °F 12.2 °F 59% 30.07 in 10.0 mi NW 5.8 mph - N/A   Overcast
6:37 PM 24.8 °F 17.9 °F 12.2 °F 59% 30.07 in 10.0 mi WNW 5.8 mph - N/A   Overcast
6:56 PM 24.8 °F 20.5 °F 14.0 °F 64% 30.07 in 10.0 mi NW 3.5 mph - N/A   Overcast
7:16 PM 24.8 °F 19.1 °F 14.0 °F 64% 30.08 in 10.0 mi North 4.6 mph - N/A   Overcast
7:37 PM 24.8 °F - 15.8 °F 69% 30.08 in 10.0 mi Calm Calm - N/A   Overcast
7:56 PM 24.8 °F 19.1 °F 15.8 °F 69% 30.08 in 10.0 mi NW 4.6 mph - N/A   Overcast
8:16 PM 23.0 °F 17.0 °F 14.0 °F 68% 30.08 in 10.0 mi NNW 4.6 mph - N/A   Overcast
8:36 PM 23.0 °F - 14.0 °F 68% 30.09 in 10.0 mi Calm Calm - N/A   Overcast
8:56 PM 23.0 °F 18.4 °F 14.0 °F 68% 30.09 in 10.0 mi NNW 3.5 mph - N/A   Overcast
9:17 PM 21.2 °F 14.9 °F 12.2 °F 68% 30.10 in 10.0 mi NNW 4.6 mph - N/A   Overcast
9:37 PM 21.2 °F 16.4 °F 12.2 °F 68% 30.10 in 10.0 mi NNW 3.5 mph - N/A   Scattered Clouds
9:56 PM 19.4 °F 14.3 °F 12.2 °F 74% 30.10 in 10.0 mi NNW 3.5 mph - N/A   Scattered Clouds
10:17 PM 17.6 °F - 12.2 °F 79% 30.10 in 10.0 mi Calm Calm - N/A   Scattered Clouds
10:36 PM 15.8 °F - 10.4 °F 79% 30.10 in 10.0 mi Calm Calm - N/A   Clear
10:56 PM 12.2 °F - 8.6 °F 85% 30.10 in 10.0 mi Calm Calm - N/A   Clear
11:16 PM 12.2 °F - 8.6 °F 85% 30.10 in 10.0 mi Calm Calm - N/A   Clear
11:37 PM 10.4 °F - 6.8 °F 85% 30.10 in 10.0 mi Calm Calm - N/A   Clear
11:56 PM 10.4 °F - 8.6 °F 92% 30.10 in 10.0 mi Calm Calm - N/A   Clear